This demonstration page uses our WeatherBlox Daily Observations layout. Learn more.

Left ArrowRight Arrow

44.89941, -97.11507

Hourly Observations for September 2, 2018

Temp ( °F °C ) Dew Point ( °F °C ) Humidity (%) Winds ( mph kmh ) Pressure ( in mb ) Visibility ( mi km ) Precip ( " mm )
12:03 am 00:03 Mostly Cloudy 68 20 61 16.1 78 78 SE 5 7 29.83 1010 10 16 0.00 0.00
12:31 am 00:31 Mostly Cloudy 68 20 63 17.2 84 84 SSE 6 9 29.83 1010 10 16 0.00 0.00
12:53 am 00:53 Clear 67 19.4 64 17.8 91 91 SSE 7 11 29.83 1010 10 16 0.00 0.00
1:53 am 01:53 Mostly Clear 65 18.3 64 17.8 97 97 S 7 11 29.82 1010 10 16 0.00 0.00
2:53 am 02:53 Partly Cloudy 66 18.9 65 18.3 96 96 SSE 10 17 29.81 1010 10 16 0.00 0.00
3:04 am 03:04 Mostly Cloudy 66 18.9 66 18.9 100 100 SSE 9 15 29.83 1010 10 16 0.00 0.00
3:36 am 03:36 Partly Cloudy 66 18.9 66 18.9 100 100 S 8 13 29.83 1010 9 14 0.00 0.00
3:53 am 03:53 Clear 66 18.9 66 18.9 100 100 S 5 7 29.81 1010 7 11 0.00 0.00
4:44 am 04:44 Mostly Cloudy with Mist and Fog 66 18.9 66 18.9 100 100 S 8 13 29.85 1011 5 8 0.00 0.00
4:53 am 04:53 Cloudy with Mist and Fog 66 18.9 66 18.9 100 100 undefined N/A 29.88 1012 5 8 0.00 0.00
5:04 am 05:04 Cloudy with Nearby Thunderstorms 65 18.3 59 15 81 81 N 18 30 29.88 1012 10 16 0.00 0.00
5:18 am 05:18 Cloudy with Thunderstorms 61 16.1 60 15.6 97 97 N 13 20 29.88 1012 5 8 0.02 0.51
5:29 am 05:29 Cloudy with Strong Thunderstorms 60 15.6 60 15.6 100 100 NNE 6 9 29.88 1012 3 4 0.18 4.57
5:36 am 05:36 Cloudy with Strong Thunderstorms 60 15.6 60 15.6 100 100 N 5 7 29.88 1012 2 2 0.37 9.40
5:44 am 05:44 Cloudy with Strong Thunderstorms 59 15 59 15 100 100 WNW 8 13 29.91 1013 1 2 0.60 15.24
5:53 am 05:53 Mostly Cloudy with Strong Thunderstorms 60 15.6 60 15.6 100 100 VRB 7 11 29.86 1011 1 2 0.75 19.05
6:01 am 06:01 Cloudy with Strong Thunderstorms 60 15.6 60 15.6 100 100 ENE 6 9 29.85 1011 2 3 0.06 1.52
6:05 am 06:05 Cloudy with Nearby Thunderstorms 60 15.6 60 15.6 100 100 ENE 7 11 29.85 1011 4 6 0.07 1.78
6:12 am 06:12 Cloudy with Nearby Thunderstorms 60 15.6 60 15.6 100 100 E 7 11 29.83 1010 9 14 0.07 1.78
6:26 am 06:26 Cloudy 61 16.1 61 16.1 100 100 SE 10 17 29.85 1011 10 16 0.07 1.78
6:38 am 06:38 Mostly Cloudy 61 16.1 61 16.1 100 100 SE 15 24 29.85 1011 10 16 0.07 1.78
6:53 am 06:53 Mostly Sunny 61 16.1 61 16.1 100 100 SE 12 19 29.84 1010 10 16 0.07 1.78
7:53 am 07:53 Sunny 60 15.6 60 15.6 100 100 NW 5 7 29.90 1013 10 16 0.00 0.00
8:53 am 08:53 Sunny 62 16.7 62 16.7 100 100 NNW 5 7 29.91 1013 10 16 0.00 0.00
9:53 am 09:53 Sunny 66 18.9 63 17.2 90 90 Calm 29.93 1013 10 16 0.00 0.00
10:53 am 10:53 Sunny 69 20.6 64 17.8 84 84 W 7 11 29.94 1014 10 16 0.00 0.00
11:53 am 11:53 Sunny 75 23.9 59 15 58 58 NNW 10 17 29.95 1014 10 16 0.00 0.00
12:53 pm 12:53 Sunny 74 23.3 61 16.1 64 64 NW 9 15 29.96 1015 10 16 0.00 0.00
1:53 pm 13:53 Sunny 75 23.9 59 15 58 58 NNW 8 13 29.97 1015 10 16 0.00 0.00
2:53 pm 14:53 Sunny 75 23.9 56 13.3 52 52 NNE 8 13 29.96 1015 10 16 0.00 0.00
3:53 pm 15:53 Sunny 76 24.4 57 13.9 52 52 NNW 9 15 29.97 1015 10 16 0.00 0.00
4:53 pm 16:53 Sunny 76 24.4 59 15 56 56 NNW 8 13 29.97 1015 10 16 0.00 0.00
5:53 pm 17:53 Sunny 74 23.3 57 13.9 56 56 NNW 13 20 29.98 1015 10 16 0.00 0.00
6:53 pm 18:53 Sunny 72 22.2 56 13.3 57 57 N 9 15 29.99 1016 10 16 0.00 0.00
7:53 pm 19:53 Sunny 66 18.9 56 13.3 70 70 NNE 8 13 30.00 1016 10 16 0.00 0.00
8:53 pm 20:53 Clear 61 16.1 56 13.3 84 84 NE 7 11 30.03 1017 10 16 0.00 0.00
9:53 pm 21:53 Partly Cloudy 63 17.2 55 12.8 76 76 ENE 7 11 30.04 1017 10 16 0.00 0.00
10:53 pm 22:53 Cloudy 63 17.2 56 13.3 78 78 NE 3 6 30.06 1018 10 16 0.00 0.00
11:53 pm 23:53 Mostly Clear 60 15.6 56 13.3 86 86 NE 6 9 30.06 1018 10 16 0.00 0.00

Powered by AerisWeather